Back to catalog

PTD-4

AliveScienceSSO
NORAD 60565·PAYLOAD·🇺🇸 United States

Launched Aug 16, 2024 from Vandenberg Space Force Base

Loading…

Next Passes (next 24 hours)

TLE

FreshSource: Space-Track

Epoch: Sep 13, 2026, 19:04 UTC

1 60565U 24149DB  26256.79449821  .00018019  00000-0  71572-3 0  9991
2 60565  97.6944 347.9557 0003548  97.2288 262.9352 15.25381432114312

Track PTD-4 in real time with AllMySat

Download on the App Store